Showing default

QZS-2, 42738

Orbit data source: Space-Track

QZS-2, 42738 is a Japanese payload satellite that was launched on Thu, 01 Jun 2017 UTC via an H-IIA 202 launch vehicle from the Tanegashima Space Center (TNSTA). Payload-class satellites include a variety of spacecraft equipped with specific instruments for various scientific and technological missions. These include communications satellites like Starlink; space stations such as the ISS; scientific satellites like the Hubble; Earth observation satellites from companies like Planet Labs, Umbra, and HawkEye 360; GPS; miniature CubeSats for education and research; and military/defense satellites.

Not visible in the next 10 days
Identifier
42738, 2017-028A
Orbit
Active
Country
Flag of JPJP / JPN
Related business
Manufacturer
MELCO
Mission
Operational Civil Nav/Com
Bus & Motor
DS-2000, LAPS-500?
Mass
4,020 kg wet, 1,802 kg dry
Launch date (UTC)
2017-06-01 (9 years ago)
Launch vehicle
H-IIA 202
Launch site
Tanegashima Space Center (TNSTA)
Object type
Payload
Rocket body
Debris
Shape & HBR
Box + 2 Pan, 12.7 m
Radar Cross Section
39.598 m², Large (>1 m²)

Expand to show TLE details & history
Last TLE update: 3 days ago

TLE from 3 days ago
0 QZS-2
1 42738U 17028A   26170.47837747 -.00000184  00000-0  00000-0 0  9999
2 42738  39.4240 243.1214 0758837 269.2922  69.3071  1.00283355  7645
Epoch: 2026-06-19T11:28Z
TLE epoch observation values (Epoch: 2026-06-19T11:28:51.813Z)
Latitude
-8.3073°
Longitude
153.02136°
Altitude
34,877.599 km
Speed
3.142 km/s
True Right ascension
15h 31m 46s
True Declination
-8° 17' 56"
Sunlit
Object was in daylight at epoch
Visualization orbit readout
Latitude
Unknown
Longitude
Unknown
Altitude
Unknown
Speed
Unknown
Apparent Right ascension
Unknown
Apparent Declination
Unknown
Sunlit
N/A
Visualization observer readout
Local Sidereal Time
00:33:09
Azimuth
Unknown
Elevation
Unknown
Doppler factor
Unknown
Orbital elements
Apogee altitude
38,983.197 km
Perigee altitude
32,584.391 km
Semi-major axis
42,161.931 km
Eccentricity
0.07588
Inclination
39.424°
RAAN
243.1214°
Arg. of periapsis
269.2922°
True anomaly
77.6933°
Mean anomaly
69.3071°
Eccentric anomaly
73.47534°
Mean motion
0.2507 °/min
Orbital period
1,435.95 mins
BSTAR
0
Loading maneuver chart data...
Computing Atmospheric mass density...
Loading historical data...
Loading historical data...
Loading historical data...
Loading historical data...
Loading historical data...
Loading historical data...
Loading historical data...
Other satellites on launch #28 in the year 2017 (2017-06-01 UTC)

Documentation

Showing up to 5 results
|